This is the latest recevied weather packets stored in our database for station/object KI5NYZ-13. If no packets are shown the sender has not sent any weather packets the latest 10 day(s).
| Time | Temp. | Humidity | Pressure | Rain* | Wind** | Luminosity | Snow |
|---|---|---|---|---|---|---|---|
| 1788479383 | 35° C | 29% | 1003.1 hPa | 0 mm | - | - | - |
| 1788477581 | 35.56° C | 30% | 1002.7 hPa | 0 mm | - | - | - |
| 1788475781 | 38.33° C | 21% | 1001.3 hPa | 0.25 mm | - | - | - |
| 1788473979 | 38.89° C | 21% | 1001.1 hPa | 0.25 mm | - | - | - |
| 1788472179 | 38.33° C | 23% | 1001.5 hPa | 0.25 mm | - | - | - |
| 1788470378 | 38.89° C | 22% | 1001.8 hPa | 0 mm | - | - | - |
| 1788468576 | 38.33° C | 22% | 1002.1 hPa | 0 mm | - | - | - |
| 1788466775 | 38.33° C | 23% | 1002.7 hPa | 0.25 mm | - | - | - |
| 1788464975 | 38.33° C | 23% | 1003.1 hPa | 0.25 mm | - | - | - |
| 1788463174 | 37.78° C | 25% | 1003.6 hPa | 0.51 mm | - | - | - |
| 1788461373 | 37.22° C | 26% | 1004.4 hPa | 0.76 mm | - | - | - |
| 1788459571 | 36.67° C | 26% | 1005.1 hPa | 0.51 mm | - | - | - |
| 1788457770 | 36.11° C | 29% | 1005.7 hPa | 0.25 mm | - | - | - |
| 1788455969 | 35° C | 31% | 1006.4 hPa | 0.25 mm | - | - | - |
| 1788454168 | 33.89° C | 34% | 1006.8 hPa | 0.25 mm | - | - | - |
| 1788452367 | 32.78° C | 37% | 1007.3 hPa | 0.25 mm | - | - | - |
| 1788450566 | 31.67° C | 39% | 1007.7 hPa | 0.51 mm | - | - | - |
| 1788448765 | 30.56° C | 40% | 1008 hPa | 0.25 mm | - | - | - |
| 1788446965 | 28.89° C | 43% | 1008.5 hPa | 0 mm | - | - | - |
| 1788445163 | 27.22° C | 46% | 1009.4 hPa | 0 mm | - | - | - |
| 1788443362 | 23.89° C | 52% | 1010.4 hPa | 0 mm | - | - | - |
| 1788441561 | 21.67° C | 58% | 1011.3 hPa | 0 mm | - | - | - |
| 1788439760 | 20° C | 63% | 1011.6 hPa | 0 mm | - | - | - |
| 1788437779 | 20° C | 63% | 1011.3 hPa | 0 mm | - | - | - |
| 1788435978 | 20.56° C | 63% | 1011.2 hPa | 0 mm | - | - | - |
* Rain latest hour (hover to see other rain measurements)
** Current wind speed in m/s (hover to see current wind gust speed)